Content
SEND FEEDBACK

Daily
Averages
Monthly
Summary
United States of America

AGAT, GUAM


Home > North America > United States > Guam
Elevation: 110 meters     Latitude: 13 33N     Longitude: 144 50E

WEATHER
 
SELECT A DAY
Number of Records: 209,044;   Date Range: 1/1/95 - 7/29/14
 
SHARE

PRINT THIS DATA

[ ← Previous Day ]
WEATHER ALMANAC - 12 MAY, 2013
[ Next Day → ]
[ °F ]   °C
Weather ElementAverageHighLow
Temperature29.1 °C31.7 °C (1:54 pm)26 °C (5:44 am)
Dewpoint23.7 °C24.4 °C (1:54 am)22.8 °C (4:54 pm)
Humidity73.6 %89 % (5:44 am)61 % (2:54 pm)
Barometer1011.2 hPa1012.9 hPa (9:14 am)1009.5 hPa (3:54 pm)
Wind Speed10.8 km/h16.7 km/h (9:54 am)
Wind Gust25.9 km/h (1:54 pm)
Weather ElementAverage
Visibility16.1 km
Wind DirectionENE (75.2 °)

Weather ElementTotal
Precipitation0.25 mm
Cooling Degree Days10.6 (Base 18.3)
Growing Degree Days18.9 (Base 10)
Averaged from 27 records on 12 May, 2013
WEATHER CONDITIONS BREAKOUT
WIND DIRECTION BREAKOUT
WEATHER BY HOUR - 12 MAY, 2013
[ °F ]   °C
Local TimeTemperatureDewpointHumidityBarometerVisibilityWind DirectionWind SpeedGust SpeedPrecipitationEventsConditions
1:54 AM27.2 °C24.4 °C85 %1010.5 hPa16.1 kmEast (80°)7.4 km/hMostly Cloudy
2:54 AM27.2 °C24.4 °C85 %1010.2 hPa16.1 kmCalmClear
3:54 AM26.1 °C23.9 °C88 %1009.8 hPa16.1 kmNNE (30°)5.6 km/hClear
4:54 AM26.1 °C23.9 °C88 %1010.2 hPa16.1 kmNE (40°)11.1 km/hClear
5:44 AM26 °C24 °C89 %1011.2 hPa16.1 kmCalmPartly Cloudy
5:54 AM26.1 °C23.9 °C88 %1010.8 hPa16.1 kmCalmClear
6:54 AM27.8 °C24.4 °C82 %1011.2 hPa16.1 kmNE (50°)7.4 km/hClear
7:54 AM28.9 °C24.4 °C76 %1011.5 hPa16.1 kmEast (90°)7.4 km/hClear
8:54 AM30 °C23.9 °C70 %1011.9 hPa16.1 kmENE (60°)13 km/hScattered Clouds
9:07 AM30 °C24 °C70 %1012.5 hPa16.1 kmEast (80°)13 km/hMostly Cloudy
9:14 AM31 °C24 °C66 %1012.9 hPa16.1 kmENE (70°)13 km/hScattered Clouds
9:54 AM30 °C23.9 °C70 %1012.2 hPa16.1 kmEast (90°)16.7 km/hOvercast
10:29 AM31 °C24 °C66 %1012.9 hPa16.1 kmEast (100°)13 km/hScattered Clouds
10:54 AM31.1 °C23.3 °C63 %1011.9 hPa16.1 kmESE (110°)14.8 km/hScattered Clouds
11:54 AM31.1 °C23.9 °C65 %1011.5 hPa16.1 kmEast (100°)13 km/hMostly Cloudy
12:54 PM31.1 °C23.3 °C63 %1011.2 hPa16.1 kmSE (130°)13 km/hScattered Clouds
1:54 PM31.7 °C23.9 °C63 %1010.2 hPa16.1 kmESE (110°)13 km/h25.9 km/hScattered Clouds
2:54 PM31.7 °C23.3 °C61 %1009.8 hPa16.1 kmEast (90°)13 km/hScattered Clouds
3:54 PM30.6 °C23.9 °C67 %1009.5 hPa16.1 kmEast (90°)14.8 km/hScattered Clouds
4:54 PM30.6 °C22.8 °C63 %1009.5 hPa16.1 kmEast (90°)16.7 km/hPartly Cloudy
5:54 PM30 °C22.8 °C65 %1009.8 hPa16.1 kmEast (100°)14.8 km/hClear
6:54 PM28.9 °C22.8 °C69 %1010.5 hPa16.1 kmEast (80°)11.1 km/hPartly Cloudy
7:54 PM28.9 °C22.8 °C69 %1011.2 hPa16.1 kmEast (80°)9.3 km/hPartly Cloudy
8:54 PM28.9 °C23.3 °C72 %1011.5 hPa16.1 kmEast (80°)9.3 km/hPartly Cloudy
9:54 PM28.3 °C23.3 °C74 %1012.2 hPa16.1 kmNE (50°)9.3 km/hPartly Cloudy
10:54 PM27.2 °C24.4 °C85 %1012.5 hPa16.1 kmENE (70°)14.8 km/h0.25 mmOvercast
11:54 PM26.7 °C23.9 °C85 %1012.5 hPa16.1 kmSSE (160°)16.7 km/h0 mmOvercast
Hourly data recorded from PGUM, located 0 kilometers away from Agat, Guam







STORIES FROM OUR PARTNERS